sat.trackr.live / text

‹ back to catalog

STARLINK-35703

NORAD 66970 · 2025-288M

PAYLOAD ACTIVE UNKNOWN

§ Identity

Operator
Country
US
Launch date
2025-12-08
Launch site
AFETR
Launch vehicle
Mass (kg)
RCS (m²)

Purposes: comms

External: N2YO · Heavens-Above · Gunter

§ Orbital elements

Epoch: 2026-05-24T21:15:21.815424Z

Period
94.26 min
Inclination
43.0006°
Eccentricity
0.0001467
Mean motion
15.27618876 rev/d
Perigee alt
481.9 km
Apogee alt
483.9 km
Semi-major
6,861.1 km
B*
1.0705e-3
RAAN
312.8757°
Arg perigee
269.9421°
Mean anomaly
90.1263°
Rev number
2,694

§ Raw data

STARLINK-357031 66970U 25288M   26144.88566916  .00029349  00000+0  10705-2 0  99902 66970  43.0006 312.8757 0001467 269.9421  90.1263 15.27618876 26940

JSON: /api/v1/satellites/66970 · /tle

For live sub-satellite position, see the globe view (requires WebGL).

§ Visibility from observer

Set your observer location to see the next 7 days of passes ≥ 10°. The values pass through the URL so the page stays shareable.

No JS? Fill the form by hand. The geolocation button needs JavaScript.